TimeCST,TemperatureF,Dew PointF,Humidity,Sea Level PressureIn,VisibilityMPH,Wind Direction,Wind SpeedMPH,Gust SpeedMPH,PrecipitationIn,Events,Conditions,WindDirDegrees,DateUTC
12:48 AM,57.2,28.4,33,30.18,8.0,Calm,Calm,-,N/A,,Clear,0,2013-02-05 06:48:00
1:49 AM,53.6,28.4,38,30.19,8.0,NE,6.9,-,N/A,,Clear,40,2013-02-05 07:49:00
2:45 AM,50.0,28.4,43,29.63,6.0,NE,6.9,-,N/A,,Clear,40,2013-02-05 08:45:00
3:50 AM,48.2,28.4,46,30.19,8.0,NE,6.9,-,N/A,,Clear,40,2013-02-05 09:50:00
4:49 AM,48.2,28.4,46,30.19,8.0,NE,6.9,-,N/A,,Clear,40,2013-02-05 10:49:00
5:45 AM,46.4,28.4,50,29.88,8.0,Calm,Calm,-,N/A,,Clear,0,2013-02-05 11:45:00
6:43 AM,44.6,28.4,53,30.20,8.0,East,6.9,-,N/A,,Clear,80,2013-02-05 12:43:00
7:50 AM,46.4,28.4,50,30.23,8.0,NNE,6.9,-,N/A,,Clear,30,2013-02-05 13:50:00
8:43 AM,57.2,30.2,36,29.99,10.0,Calm,Calm,-,N/A,,Clear,0,2013-02-05 14:43:00
9:49 AM,66.2,35.6,32,30.29,10.0,Calm,Calm,-,N/A,,Clear,0,2013-02-05 15:49:00
10:42 AM,71.6,33.8,25,30.29,10.0,South,4.6,-,N/A,,Clear,180,2013-02-05 16:42:00
11:44 AM,75.2,32.0,21,29.91,10.0,Calm,Calm,-,N/A,,Clear,0,2013-02-05 17:44:00
12:42 PM,78.8,30.2,17,30.24,10.0,Calm,Calm,-,N/A,,Clear,0,2013-02-05 18:42:00
1:43 PM,82.4,30.2,15,30.21,10.0,SW,8.1,-,N/A,,Partly Cloudy,220,2013-02-05 19:43:00
2:44 PM,82.4,28.4,14,29.77,10.0,Calm,Calm,-,N/A,,Partly Cloudy,0,2013-02-05 20:44:00
3:44 PM,84.2,26.6,12,30.12,10.0,Calm,Calm,-,N/A,,Scattered Clouds,0,2013-02-05 21:44:00
4:42 PM,82.4,26.6,13,30.12,10.0,West,6.9,-,N/A,,Scattered Clouds,260,2013-02-05 22:42:00
5:42 PM,80.6,26.6,14,29.76,10.0,Calm,Calm,-,N/A,,Scattered Clouds,0,2013-02-05 23:42:00
6:55 PM,71.6,28.4,20,30.12,8.0,Calm,Calm,-,N/A,,Partly Cloudy,0,2013-02-06 00:55:00
7:48 PM,68.0,30.2,24,30.12,8.0,Calm,Calm,-,N/A,,Clear,0,2013-02-06 01:48:00
8:42 PM,64.4,30.2,28,29.84,8.0,Calm,Calm,-,N/A,,Clear,0,2013-02-06 02:42:00
9:44 PM,62.6,28.4,27,30.18,8.0,Calm,Calm,-,N/A,,Clear,0,2013-02-06 03:44:00
10:41 PM,57.2,28.4,33,30.21,8.0,North,4.6,-,N/A,,Clear,360,2013-02-06 04:41:00
11:41 PM,55.4,30.2,38,29.87,8.0,NNE,4.6,-,N/A,,Clear,30,2013-02-06 05:41:00